Regional Weather Roundup
Issued by NWS

Home | Current Version | Previous Version | Text Only | Print | Product List | Glossary On
Versions: 1 2 3 4 5 6 7 8 9 10 11 12 13 14 15 16 17 18 19 20 21 22 23 24 25 26 27 28 29 30 31 32 33 34 35 36 37 38 39 40 41 42 43 44 45 46 47 48 49 50
000
ASCA42 TJSJ 242210
RWRPR
PUERTO RICO/U.S. VIRGIN ISLANDS HOURLY WEATHER ROUNDUP
NATIONAL WEATHER SERVICE SAN JUAN PR
600 PM AST SAT SEP 24 2016

PRZ001>002-007>008-010-242300-
PUERTO RICO

CITY           SKY/WX    TMP DP  RH WIND       PRES   REMARKS
SAN JUAN LMM   PTCLDY    84  79  84 E9        29.95S HX  96
AGUADILLA      PTCLDY    82  75  78 NE7       29.97S
CEIBA          PTCLDY    82  79  89 E6        29.98R HX  93
$$

VIZ001>002-242300-
U.S. VIRGIN ISLANDS

CITY           SKY/WX    TMP DP  RH WIND       PRES   REMARKS
CHARLOTTE AMA  CLEAR     86  75  70 SE8       29.95S HX  95
CHRISTIANSTED  CLEAR     84  73  70 E10       29.96F HX  91
$$

HOURLY WEATHER ROUNDUP FOR THE NEWS MEDIA

CITY           SKY/WX    TMP DP  RH WIND       PRES   REMARKS
ORLANDO        MOSUNNY   84  74  71 E13       29.99S HX  91
NEW YORK       PTCLDY    70  39  32 N10       30.09R
NEWARK         PTCLDY    70  43  37 VRB6G21   30.08R
CHICAGO        MOSUNNY   72  63  73 NE10      30.13F
HARTFORD       PTCLDY    65  41  41 VRB3      30.05R
BOSTON         PTCLDY    64  37  36 N17       30.06R
DALLAS         PTSUNNY   87  73  62 VRB6      29.90F HX  94
PHILADELPHIA   PTCLDY    71  53  52 CALM      30.09R
LOS ANGELES    SUNNY     78  53  41 W15       29.97F
WASHINGTON DC  PTSUNNY   71  60  68 E8        30.08R


USA.gov is the U.S. government's official web portal to all federal, state and local government web resources and services.